Погода в Ивашке

Россия / Камчатский край     58°33′31″N   162°18′14″E
темп.,
°C
ветер,
м/с
пор.,
м/с
влажн.,
%
обл.,
%
осадки,
мм/ч
давл.,
гПа
погр.,
м
27 января, ср
ср2700:00−9ссв71492100 0.7 1015473
03:00−10ссв61386100 0.1 1014371
06:00−10с61382100 0.1 1013365
09:00−9с61390100 0.4 1012597
12:00−8ссз5984100 0.6 1010293
15:00−6с4888100 0.1 1007372
18:00−5ссз41096100 0.9 1005362
21:00−8всв4596100 1.7 1004143
28 января, чт
чт2800:00−10ссз3491100 3.0 1004178
03:00−14сз3480100 0.1 1003175
06:00−16сз3478100 0.1 1004104
09:00−17сз3378100 0.0 100477
12:00−18сз2377100 0.0 1004107
15:00−17ссз127795 0.0 100378
18:00−19зсз227797 0.0 100320
21:00−21сз237690 0.0 100220
29 января, пт
пт2900:00−22ссз227574 0.0 100220
03:00−22сз227355 0.0 100320
06:00−22зсз227174 0.0 100420
09:00−22зсз227025 0.0 100820
12:00−20зсз237412 0.0 101122
15:00−19зсз22770 0.0 101421
18:00−21зсз23740 0.0 101720
21:00−22зсз23730 0.0 102020
30 января, сб
сб3000:00−22ссз33730 0.0 102020
03:00−23сз12730 0.0 102020
06:00−23с23720 0.0 101820
09:00−22с337137 0.0 101624
12:00−19с457669 0.0 1013121
15:00−14ссв71393100 0.4 1008619
18:00−11с81694100 1.8 1003467
21:00−5св172394100 3.2 9981086
31 января, вс
вс3100:00−7ссв202794100 9.6 992932
03:00−8ссв212894100 10.9 988812
06:00−5ссв192696100 22.4 986792
09:00−5ссв162396100 7.3 986622
12:00−7с152394100 10.1 986714
15:00−10с91785100 1.0 984745
18:00−8ссз51478100 1.0 982668
21:00−6ссз31296100 0.9 978585